QPF
0.00 0.00 0.00 0.00 0.00 0.00 0.00 0.00 0.00 0.00 0.00 0.00 0.00 0.00 0.00 0.00 0.00 0.00 0.00 0.00 0.00 0.00 0.00 0.00 0.00 0.00 0.00 0.00 0.00 0.00 0.00 0.00 0.00 0.00 0.00 0.00 0.00 0.00 0.00 0.00 0.00 0.00 0.00
0.00 0.00 0.00 0.00 0.00 0.00 0.00 0.00 0.00 0.00 0.00 0.00 0.00 0.00 0.00 0.00 0.00 0.00 0.00 0.00 0.00 0.00 0.00 0.00 0.00 0.00 0.00 0.00 0.00 0.00 0.00 0.00 0.00 0.00 0.00 0.00 0.00 0.00 0.00 0.00 0.00 0.00 0.00
0.00 0.00 0.00 0.00 0.00 0.00 0.00 0.00 0.00 0.00 0.00 0.00 0.00 0.00 0.00 0.00 0.00 0.00 0.00 0.00 0.00 0.00 0.00 0.00 0.00 0.00 0.00 0.00 0.00 0.00 0.00 0.00 0.00 0.00 0.00 0.00 0.00 0.00 0.00 0.00 0.00 0.00 0.00
0.00 0.00 0.00 0.00 0.00 0.00 0.00 0.00 0.00 0.00 0.00 0.00 0.00 0.00 0.00 0.00 0.00 0.00 0.00 0.00 0.00 0.00 0.00 0.00 0.00 0.00 0.00 0.00 0.00 0.00 0.00 0.00 0.00 0.00 0.00 0.00 0.00 0.00 0.00 0.00 0.00 0.00 0.00
0.00 0.00 0.00 0.00 0.00 0.00 0.00 0.00 0.00 0.00 0.00 0.00 0.00 0.00 0.00 0.00 0.00 0.00 0.00 0.00 0.00 0.00 0.00 0.00 0.00 0.00 0.00 0.00 0.00 0.00 0.00 0.00 0.00 0.00 0.00 0.00 0.00 0.00 0.00 0.00 0.00 0.00 0.00
0.00 0.00 0.00 0.00 0.00 0.00 0.00 0.00 0.00 0.00 0.00 0.00 0.00 0.00 0.00 0.00 0.00 0.00 0.00 0.00 0.00 0.00 0.00 0.00 0.00 0.00 0.00 0.00 0.00 0.00 0.00 0.00 0.00 0.00 0.00 0.00 0.00 0.00 0.00 0.00 0.00 0.00 0.00
0.00 0.00 0.00 0.00 0.00 0.00 0.00 0.00 0.00 0.00 0.00 0.00 0.00 0.00 0.00 0.00 0.00 0.00 0.00 0.00 0.00 0.00 0.00 0.00 0.00 0.00 0.00 0.00 0.00 0.00 0.00 0.00 0.00 0.00 0.00 0.00 0.00 0.00 0.00 0.00 0.00 0.00 0.00
0.00 0.00 0.00 0.00 0.00 0.00 0.00 0.00 0.00 0.00 0.00 0.00 0.00 0.00 0.00 0.00 0.00 0.00 0.00 0.00 0.00 0.00 0.00 0.00 0.00 0.00 0.00 0.00 0.00 0.00 0.00 0.00 0.00 0.00 0.00 0.00 0.00 0.00 0.00 0.00 0.00 0.00 0.00
0.00 0.00 0.00 0.00 0.00 0.00 0.00 0.00 0.00 0.00 0.00 0.00 0.00 0.00 0.00 0.00 0.00 0.00 0.00 0.00 0.00 0.00 0.00 0.00 0.00 0.00 0.00 0.00 0.00 0.00 0.00 0.00 0.00 0.00 0.00 0.00 0.00 0.00 0.00 0.00 0.00 0.01 0.00
0.00 0.00 0.00 0.00 0.00 0.00 0.00 0.00 0.00 0.00 0.00 0.00 0.00 0.00 0.00 0.00 0.00 0.00 0.00 0.00 0.00 0.00 0.00 0.00 0.00 0.00 0.00 0.00 0.00 0.00 0.00 0.00 0.00 0.00 0.00 0.00 0.00 0.00 0.00 0.00 0.00 0.00 0.00
0.00 0.00 0.00 0.00 0.00 0.00 0.00 0.00 0.00 0.00 0.00 0.00 0.00 0.00 0.00 0.00 0.00 0.00 0.00 0.00 0.00 0.00 0.00 0.00 0.00 0.00 0.00 0.00 0.00 0.00 0.00 0.00 0.00 0.00 0.00 0.00 0.00 0.00 0.00 0.00 0.00 0.00 0.00
0.00 0.00 0.00 0.00 0.00 0.00 0.00 0.00 0.00 0.00 0.00 0.00 0.00 0.00 0.00 0.00 0.00 0.00 0.00 0.00 0.00 0.00 0.00 0.00 0.00 0.00 0.00 0.01 0.00 0.01 0.01 0.00 0.00 0.00 0.00 0.00 0.00 0.00 0.00 0.00 0.00 0.00 0.00
0.00 0.00 0.00 0.00 0.00 0.00 0.00 0.00 0.00 0.00 0.00 0.00 0.00 0.00 0.00 0.00 0.00 0.00 0.00 0.00 0.00 0.00 0.00 0.00 0.00 0.00 0.00 0.00 0.00 0.00 0.00 0.00 0.00 0.00 0.00 0.00 0.00 0.00 0.00 0.00 0.00 0.00 0.00
0.00 0.00 0.00 0.00 0.00 0.00 0.00 0.00 0.00 0.00 0.00 0.00 0.00 0.00 0.00 0.00 0.00 0.00 0.00 0.00 0.00 0.00 0.00 0.00 0.00 0.00 0.00 0.00 0.00 0.00 0.00 0.00 0.00 0.00 0.00 0.00 0.00 0.00 0.00 0.00 0.00 0.00 0.00
0.00 0.00 0.00 0.00 0.00 0.00 0.00 0.00 0.00 0.00 0.00 0.00 0.00 0.00 0.00 0.00 0.00 0.00 0.00 0.00 0.00 0.00 0.00 0.00 0.00 0.00 0.00 0.00 0.00 0.00 0.00 0.00 0.00 0.00 0.00 0.00 0.00 0.00 0.00 0.00 0.00 0.00 0.00
0.00 0.00 0.00 0.00 0.00 0.00 0.00 0.00 0.00 0.00 0.00 0.00 0.00 0.00 0.00 0.00 0.00 0.00 0.00 0.00 0.00 0.00 0.00 0.00 0.00 0.00 0.00 0.00 0.00 0.00 0.00 0.00 0.00 0.00 0.00 0.00 0.00 0.00 0.00 0.00 0.00 0.00 0.00
0.00 0.00 0.00 0.00 0.00 0.00 0.00 0.00 0.00 0.00 0.00 0.00 0.00 0.00 0.00 0.00 0.00 0.00 0.00 0.00 0.00 0.00 0.00 0.00 0.00 0.00 0.00 0.00 0.00 0.00 0.00 0.00 0.00 0.00 0.00 0.00 0.00 0.00 0.00 0.00 0.00 0.00 0.00
0.00 0.00 0.00 0.00 0.00 0.00 0.00 0.00 0.00 0.00 0.00 0.00 0.00 0.00 0.00 0.00 0.00 0.00 0.00 0.00 0.00 0.00 0.00 0.00 0.00 0.00 0.00 0.00 0.00 0.00 0.00 0.00 0.00 0.00 0.00 0.00 0.00 0.00 0.00 0.00 0.00 0.00 0.01
0.00 0.00 0.00 0.00 0.00 0.00 0.00 0.00 0.00 0.00 0.00 0.00 0.00 0.00 0.00 0.00 0.00 0.00 0.00 0.00 0.00 0.00 0.00 0.00 0.00 0.00 0.00 0.00 0.00 0.00 0.00 0.00 0.00 0.00 0.00 0.00 0.00 0.00 0.00 0.00 0.00 0.00 0.00
0.00 0.00 0.00 0.00 0.00 0.00 0.00 0.00 0.00 0.00 0.00 0.00 0.00 0.00 0.00 0.00 0.00 0.00 0.00 0.00 0.00 0.00 0.00 0.00 0.00 0.00 0.00 0.00 0.00 0.00 0.00 0.00 0.00 0.00 0.00 0.00 0.00 0.00 0.00 0.00 0.00 0.00 0.00
0.00 0.00 0.00 0.00 0.00 0.00 0.00 0.00 0.00 0.00 0.00 0.00 0.00 0.00 0.00 0.00 0.00 0.00 0.00 0.00 0.00 0.00 0.00 0.00 0.00 0.00 0.00 0.00 0.00 0.00 0.00 0.00 0.00 0.00 0.00 0.00 0.00 0.00 0.00 0.00 0.00 0.00 0.00
0.00 0.00 0.00 0.00 0.00 0.00 0.00 0.00 0.00 0.00 0.00 0.00 0.00 0.00 0.00 0.00 0.00 0.00 0.00 0.00 0.00 0.00 0.00 0.00 0.00 0.00 0.00 0.00 0.00 0.00 0.00 0.00 0.00 0.00 0.00 0.00 0.00 0.00 0.00 0.00 0.00 0.00 0.00
0.00 0.00 0.00 0.00 0.00 0.00 0.00 0.00 0.00 0.00 0.00 0.00 0.00 0.00 0.00 0.00 0.00 0.00 0.00 0.00 0.00 0.00 0.00 0.00 0.00 0.00 0.00 0.00 0.00 0.00 0.00 0.00 0.00 0.00 0.00 0.00 0.00 0.00 0.00 0.00 0.00 0.00 0.00
0.00 0.00 0.00 0.00 0.00 0.00 0.00 0.00 0.00 0.00 0.00 0.00 0.00 0.00 0.00 0.00 0.00 0.00 0.00 0.00 0.00 0.00 0.00 0.00 0.00 0.00 0.00 0.00 0.00 0.00 0.00 0.00 0.00 0.00 0.00 0.00 0.00 0.00 0.00 0.00 0.00 0.00 0.00
0.00 0.00 0.00 0.00 0.00 0.00 0.00 0.00 0.00 0.00 0.00 0.00 0.00 0.00 0.00 0.00 0.00 0.00 0.00 0.00 0.00 0.00 0.00 0.00 0.00 0.00 0.00 0.00 0.00 0.00 0.00 0.00 0.00 0.00 0.00 0.00 0.00 0.00 0.00 0.00 0.00 0.00 0.00
0.00 0.00 0.00 0.00 0.00 0.00 0.00 0.00 0.00 0.00 0.00 0.00 0.00 0.00 0.00 0.00 0.00 0.00 0.00 0.00 0.00 0.00 0.00 0.00 0.00 0.00 0.00 0.00 0.00 0.00 0.00 0.00 0.00 0.00 0.00 0.00 0.00 0.00 0.00 0.00 0.00 0.00 0.00
MSLP
1029.12 1029.29 1029.44 1029.65 1029.79 1029.97 1030.26 1030.41 1030.47 1030.41 1030.29 1030.10 1029.93 1029.74 1029.59 1029.37 1029.23 1029.16 1029.14 1028.50 1028.19 1027.87 1027.54 1027.18 1026.76 1026.40 1025.85 1025.38 1024.88 1024.56 1023.84 1023.57 1022.64 1021.10 1020.32 1019.57 1019.07 1018.93 1018.39 1018.15 1018.16 1017.99 1017.86
1028.79 1029.01 1029.29 1029.56 1029.79 1029.98 1030.27 1030.26 1030.37 1030.43 1030.35 1030.29 1030.03 1029.79 1029.62 1029.43 1029.15 1029.00 1028.71 1028.42 1028.17 1027.57 1027.16 1026.78 1026.26 1025.91 1025.45 1024.99 1024.63 1024.00 1023.40 1022.92 1022.51 1021.15 1020.31 1019.67 1018.85 1018.36 1018.16 1017.80 1017.51 1017.35 1017.17
1028.72 1029.04 1029.37 1029.66 1029.90 1030.05 1030.09 1030.23 1030.36 1030.34 1030.35 1030.30 1030.11 1029.89 1029.74 1029.53 1029.17 1028.85 1028.59 1028.20 1027.69 1027.19 1026.77 1026.36 1025.75 1025.48 1024.90 1024.50 1024.03 1023.35 1022.76 1022.11 1021.66 1020.91 1019.78 1019.41 1018.60 1018.11 1017.58 1017.23 1016.98 1016.78 1016.48
1028.68 1029.06 1029.43 1029.71 1029.88 1030.01 1030.14 1030.29 1030.29 1030.30 1030.34 1030.30 1030.18 1030.03 1029.87 1029.58 1029.16 1028.64 1028.26 1027.85 1027.38 1026.93 1026.57 1026.11 1025.58 1025.11 1024.43 1023.84 1023.32 1022.78 1022.13 1021.51 1021.11 1020.39 1019.54 1019.01 1018.39 1017.50 1017.22 1017.02 1016.34 1016.23 1015.98
1028.52 1028.99 1029.35 1029.69 1029.89 1030.07 1030.18 1030.34 1030.37 1030.37 1030.37 1030.32 1030.09 1030.04 1029.84 1029.53 1028.76 1028.53 1028.11 1027.59 1027.19 1026.68 1026.37 1025.98 1025.43 1024.85 1024.10 1023.35 1022.75 1022.06 1021.75 1021.21 1020.70 1019.97 1019.09 1018.48 1017.70 1017.43 1017.11 1016.53 1015.94 1015.61 1015.01
1028.11 1028.75 1029.22 1029.63 1029.87 1029.97 1030.18 1030.38 1030.42 1030.40 1030.39 1030.29 1030.14 1030.00 1029.76 1029.36 1028.98 1028.45 1027.85 1027.33 1026.93 1026.52 1025.94 1025.53 1025.16 1024.55 1023.85 1023.17 1022.51 1021.79 1021.25 1020.56 1020.10 1019.61 1018.70 1017.82 1016.94 1016.96 1016.76 1016.32 1015.63 1015.30 1014.44
1028.08 1028.77 1029.22 1029.58 1029.78 1030.01 1030.36 1030.54 1030.56 1030.47 1030.35 1030.23 1030.14 1029.98 1029.74 1029.50 1028.75 1028.06 1027.59 1027.09 1026.57 1026.16 1025.76 1025.17 1024.54 1024.00 1023.56 1022.94 1022.45 1021.71 1021.08 1020.61 1019.81 1019.07 1018.16 1017.53 1017.02 1016.86 1016.63 1016.01 1015.35 1014.60 1013.62
1028.05 1028.71 1029.20 1029.55 1029.74 1030.06 1030.40 1030.54 1030.53 1030.45 1030.40 1030.33 1030.21 1030.07 1029.69 1029.27 1028.48 1027.88 1027.17 1026.60 1026.22 1025.84 1025.37 1024.80 1024.10 1023.33 1022.80 1022.17 1021.45 1020.77 1020.22 1019.73 1019.31 1018.78 1018.06 1017.19 1016.90 1016.71 1016.58 1015.96 1015.25 1014.32 1013.24
1027.82 1028.41 1028.97 1029.18 1029.58 1029.96 1030.40 1030.53 1030.57 1030.58 1030.55 1030.42 1030.13 1029.88 1029.65 1029.20 1028.52 1027.55 1026.80 1026.16 1025.60 1025.17 1024.69 1023.99 1023.25 1022.53 1022.05 1021.24 1020.30 1019.66 1019.08 1018.63 1018.30 1017.63 1016.85 1016.14 1015.57 1015.24 1015.14 1014.98 1014.36 1013.92 1011.74
1027.49 1028.03 1028.71 1029.15 1029.57 1030.03 1030.35 1030.64 1030.78 1030.82 1030.49 1030.25 1029.96 1029.87 1029.54 1028.94 1028.25 1027.27 1026.34 1025.47 1024.75 1024.16 1023.53 1022.73 1022.19 1021.35 1020.51 1019.74 1019.18 1018.69 1017.93 1017.49 1017.02 1016.43 1015.89 1015.36 1014.82 1014.50 1014.26 1014.35 1014.00 1013.06 1011.98
1027.42 1028.12 1028.74 1029.21 1029.66 1030.04 1030.39 1030.68 1030.79 1030.70 1030.49 1030.32 1029.86 1029.46 1029.14 1028.68 1027.76 1026.64 1025.54 1024.46 1023.74 1022.88 1022.17 1021.49 1020.85 1020.12 1019.30 1018.49 1017.78 1017.22 1016.53 1015.97 1015.28 1014.71 1014.23 1013.93 1013.79 1013.50 1013.33 1013.21 1012.84 1012.32 1011.20
1027.57 1028.25 1028.84 1029.20 1029.61 1030.05 1030.34 1030.55 1030.67 1030.71 1030.62 1030.16 1029.62 1028.88 1028.23 1027.58 1026.84 1025.75 1024.55 1023.45 1022.61 1021.91 1021.14 1020.41 1019.61 1018.72 1017.71 1016.82 1016.02 1015.27 1014.58 1014.11 1013.95 1013.77 1013.38 1012.89 1012.62 1012.24 1011.85 1011.60 1011.26 1010.74 1010.10
1027.77 1028.40 1028.75 1029.06 1029.38 1029.81 1030.14 1030.33 1030.53 1030.39 1030.20 1029.69 1029.15 1028.27 1027.28 1026.57 1025.82 1024.67 1023.51 1022.57 1021.66 1020.88 1020.20 1019.08 1017.83 1017.02 1016.31 1015.68 1015.27 1014.69 1014.06 1013.54 1013.15 1012.73 1012.10 1011.50 1011.28 1010.88 1010.59 1010.32 1009.93 1009.55 1008.83
1027.84 1028.23 1028.53 1028.88 1029.06 1029.43 1029.68 1029.76 1029.74 1029.69 1029.40 1028.90 1028.19 1027.33 1026.36 1025.39 1024.53 1023.71 1022.59 1021.48 1020.82 1019.99 1019.07 1018.29 1018.01 1017.57 1016.73 1015.74 1015.07 1014.37 1013.88 1013.37 1012.81 1012.07 1011.28 1010.63 1010.15 1009.77 1009.34 1009.14 1008.58 1008.30 1007.63
1027.66 1028.08 1028.36 1028.69 1028.97 1029.23 1029.21 1028.98 1028.66 1028.44 1028.21 1027.27 1026.37 1025.71 1025.14 1024.51 1023.85 1022.59 1021.66 1020.76 1020.00 1019.41 1018.89 1018.71 1018.40 1017.87 1017.04 1016.16 1015.36 1014.65 1013.98 1013.30 1012.41 1011.48 1010.64 1009.93 1009.37 1008.86 1008.33 1007.96 1007.53 1007.07 1006.31
1027.57 1027.91 1028.09 1028.36 1028.65 1028.81 1028.80 1028.43 1027.84 1026.96 1026.22 1025.52 1024.84 1024.54 1024.31 1023.71 1022.93 1022.17 1021.33 1020.65 1020.12 1019.90 1019.77 1019.75 1019.04 1018.33 1017.49 1016.55 1015.60 1014.56 1013.73 1012.94 1011.99 1010.96 1009.91 1008.87 1008.25 1007.76 1007.25 1006.70 1006.23 1005.59 1004.63
1027.31 1027.57 1027.83 1028.13 1028.37 1028.54 1028.55 1028.40 1027.87 1026.90 1026.23 1025.52 1025.01 1024.64 1024.10 1023.29 1022.72 1021.91 1021.41 1020.87 1021.12 1020.67 1020.93 1020.27 1019.55 1018.68 1017.74 1016.83 1015.88 1014.86 1013.69 1012.66 1011.61 1010.30 1008.99 1007.88 1007.25 1006.75 1006.21 1005.23 1004.31 1003.58 1002.69
1027.17 1027.40 1027.69 1027.91 1028.21 1028.28 1028.29 1028.17 1027.93 1027.48 1026.89 1025.99 1025.57 1024.93 1023.92 1023.36 1022.70 1022.10 1021.89 1021.67 1021.58 1021.19 1021.08 1020.39 1019.50 1018.58 1017.69 1016.74 1015.68 1014.63 1013.37 1012.15 1010.97 1009.63 1008.05 1006.80 1006.31 1005.79 1004.99 1004.07 1002.96 1001.81 1000.08
1027.09 1027.25 1027.47 1027.67 1027.86 1027.98 1028.05 1027.90 1027.69 1027.33 1026.91 1026.22 1025.27 1024.63 1024.30 1023.58 1022.98 1022.73 1022.50 1022.75 1022.43 1021.56 1020.81 1020.03 1019.23 1018.33 1017.38 1016.43 1015.40 1014.24 1013.08 1011.73 1010.44 1009.13 1007.69 1006.24 1005.48 1004.89 1003.89 1002.94 1001.91 1000.77 999.54
1026.60 1026.73 1026.97 1027.30 1027.62 1027.86 1027.76 1027.56 1027.39 1027.13 1026.67 1026.14 1025.53 1024.83 1024.06 1023.61 1023.32 1023.39 1022.89 1022.64 1022.54 1021.74 1020.78 1019.87 1018.89 1018.06 1017.11 1016.10 1014.96 1013.81 1012.50 1011.21 1009.97 1008.81 1007.58 1006.30 1004.88 1003.90 1002.91 1001.86 1000.76 999.87 998.93
1026.16 1026.54 1026.75 1027.02 1027.37 1027.34 1027.21 1027.10 1026.93 1026.65 1026.28 1025.85 1025.28 1024.76 1023.73 1023.46 1023.64 1023.56 1023.13 1022.49 1022.04 1021.46 1020.62 1019.68 1018.76 1017.84 1016.84 1015.78 1014.68 1013.57 1012.35 1011.03 1009.85 1008.65 1007.42 1006.19 1004.94 1003.69 1002.41 1001.10 999.82 999.00 998.45
1026.24 1026.49 1026.78 1026.90 1026.72 1026.86 1026.68 1026.51 1026.26 1025.99 1025.76 1025.48 1024.88 1024.53 1023.94 1023.93 1023.69 1023.32 1022.67 1022.16 1021.65 1021.19 1020.49 1019.74 1018.79 1017.81 1016.84 1015.78 1014.65 1013.44 1012.06 1010.62 1009.44 1008.41 1007.37 1006.20 1004.94 1003.75 1002.58 1001.26 1000.09 999.12 998.52
1025.99 1026.22 1026.46 1026.49 1026.28 1026.17 1026.06 1025.82 1025.59 1025.44 1025.25 1024.97 1024.75 1024.46 1024.24 1023.89 1023.63 1023.16 1022.55 1021.92 1021.30 1020.67 1019.98 1019.35 1018.51 1017.44 1016.46 1015.54 1014.63 1013.46 1012.05 1010.39 1009.11 1008.38 1007.39 1006.22 1005.04 1003.92 1002.84 1001.79 1000.80 999.96 999.47
1025.44 1025.59 1025.73 1025.73 1025.70 1025.51 1025.30 1025.11 1024.95 1024.82 1024.68 1024.42 1024.34 1024.33 1023.98 1023.48 1023.26 1022.80 1022.20 1021.55 1020.88 1020.20 1019.59 1018.89 1018.07 1017.21 1016.23 1015.33 1014.25 1013.13 1011.93 1010.43 1009.06 1008.28 1007.40 1006.42 1005.37 1004.29 1003.27 1002.31 1001.50 1000.89 1000.44
1024.91 1025.19 1025.20 1025.02 1024.97 1024.78 1024.62 1024.50 1024.34 1024.20 1024.09 1024.00 1023.88 1023.87 1023.29 1023.06 1022.67 1022.17 1021.60 1021.11 1020.51 1019.84 1019.02 1018.37 1017.41 1016.53 1015.77 1014.92 1013.97 1012.85 1011.51 1009.93 1008.91 1008.12 1007.33 1006.53 1005.68 1004.82 1004.02 1003.31 1002.62 1001.99 1001.58
1024.08 1024.19 1024.18 1024.15 1024.12 1024.00 1023.93 1023.85 1023.69 1023.58 1023.47 1023.38 1023.37 1023.23 1023.00 1022.63 1022.12 1021.67 1021.10 1020.59 1020.00 1019.34 1018.74 1017.85 1016.84 1016.09 1015.32 1014.42 1013.44 1012.33 1011.21 1009.66 1008.73 1008.26 1007.60 1006.88 1006.18 1005.45 1004.82 1004.30 1003.76 1003.31 1003.05
Thickness
5417 5412 5407 5402 5397 5392 5387 5383 5378 5375 5372 5369 5366 5363 5360 5357 5354 5352 5350 5353 5353 5352 5351 5353 5357 5359 5366 5369 5373 5377 5384 5384 5395 5421 5435 5446 5456 5460 5465 5469 5473 5478 5483
5401 5395 5390 5383 5377 5372 5366 5361 5356 5350 5346 5342 5339 5337 5333 5330 5328 5326 5326 5326 5325 5329 5329 5329 5332 5334 5337 5342 5347 5355 5362 5367 5372 5386 5404 5415 5428 5435 5441 5450 5454 5458 5465
5382 5375 5369 5362 5355 5349 5343 5337 5331 5326 5320 5316 5311 5308 5304 5301 5299 5297 5297 5299 5301 5302 5304 5304 5308 5308 5313 5317 5321 5328 5337 5346 5352 5361 5380 5388 5401 5409 5418 5424 5433 5440 5445
5363 5356 5348 5340 5334 5328 5322 5315 5310 5303 5297 5291 5285 5280 5275 5272 5270 5269 5269 5270 5272 5274 5275 5275 5278 5280 5285 5291 5296 5303 5310 5318 5327 5336 5349 5362 5373 5389 5394 5401 5412 5415 5423
5346 5338 5330 5322 5315 5306 5299 5291 5284 5277 5271 5265 5261 5255 5251 5247 5246 5244 5245 5247 5247 5248 5247 5247 5249 5252 5257 5262 5267 5278 5281 5288 5296 5305 5319 5334 5350 5357 5368 5376 5386 5395 5407
5331 5321 5310 5300 5292 5284 5276 5267 5260 5254 5249 5245 5241 5237 5234 5231 5227 5225 5224 5225 5225 5224 5225 5225 5225 5228 5232 5236 5240 5246 5253 5260 5265 5273 5289 5303 5325 5327 5336 5347 5359 5365 5386
5310 5297 5287 5278 5270 5262 5253 5246 5241 5238 5234 5230 5225 5221 5217 5212 5210 5208 5205 5205 5205 5204 5203 5203 5205 5206 5208 5212 5216 5221 5226 5228 5235 5245 5258 5275 5284 5291 5297 5311 5324 5339 5360
5289 5276 5265 5257 5250 5243 5236 5231 5227 5223 5218 5213 5209 5204 5201 5196 5193 5191 5189 5188 5187 5185 5184 5184 5185 5188 5189 5192 5199 5204 5209 5212 5215 5219 5227 5244 5248 5256 5259 5270 5283 5300 5327
5269 5258 5247 5241 5234 5228 5220 5216 5211 5207 5201 5196 5193 5188 5183 5180 5175 5173 5172 5172 5172 5171 5170 5169 5169 5172 5172 5176 5183 5188 5194 5198 5198 5205 5214 5221 5229 5235 5239 5242 5255 5263 5298
5252 5243 5233 5226 5218 5212 5207 5200 5194 5188 5187 5183 5179 5171 5166 5164 5159 5156 5156 5158 5160 5160 5162 5164 5161 5164 5168 5171 5175 5178 5185 5187 5191 5195 5200 5206 5212 5218 5219 5217 5226 5235 5253
5237 5227 5218 5212 5204 5198 5192 5184 5178 5173 5170 5164 5163 5159 5152 5147 5146 5143 5145 5148 5150 5154 5158 5160 5160 5159 5163 5167 5171 5175 5179 5183 5189 5193 5197 5200 5201 5203 5203 5202 5207 5211 5226
5221 5212 5204 5198 5191 5184 5175 5168 5162 5155 5151 5148 5146 5145 5142 5138 5134 5135 5138 5142 5145 5148 5152 5154 5156 5158 5162 5167 5170 5174 5178 5180 5179 5180 5183 5188 5188 5189 5191 5192 5194 5197 5204
5205 5197 5190 5184 5178 5170 5161 5155 5147 5140 5135 5134 5133 5133 5134 5132 5128 5130 5135 5138 5142 5144 5146 5151 5157 5161 5163 5165 5164 5165 5166 5168 5168 5169 5172 5176 5173 5174 5175 5175 5178 5180 5185
5189 5185 5178 5171 5165 5157 5151 5144 5136 5129 5125 5122 5120 5121 5124 5126 5125 5127 5133 5137 5139 5142 5145 5147 5144 5144 5146 5150 5151 5151 5150 5149 5150 5152 5156 5157 5156 5155 5155 5153 5158 5159 5162
5178 5172 5165 5158 5150 5143 5137 5132 5127 5122 5117 5114 5116 5119 5119 5118 5117 5125 5128 5132 5135 5136 5135 5131 5128 5127 5129 5132 5133 5134 5133 5132 5134 5136 5136 5135 5134 5131 5132 5133 5135 5136 5143
5166 5160 5153 5145 5137 5131 5125 5121 5117 5116 5115 5114 5113 5111 5109 5108 5112 5116 5119 5121 5122 5120 5115 5108 5109 5110 5112 5114 5116 5119 5118 5117 5118 5122 5123 5123 5120 5117 5116 5118 5120 5123 5132
5152 5147 5138 5131 5124 5118 5112 5107 5107 5105 5102 5101 5099 5096 5097 5100 5103 5107 5108 5108 5102 5102 5090 5091 5092 5094 5095 5095 5097 5099 5104 5105 5105 5109 5111 5113 5112 5109 5110 5115 5120 5124 5131
5137 5130 5123 5117 5110 5104 5100 5096 5093 5090 5089 5085 5082 5083 5087 5089 5094 5097 5096 5092 5087 5084 5076 5079 5079 5080 5080 5081 5083 5088 5094 5097 5097 5099 5105 5109 5108 5106 5108 5113 5120 5129 5145
5120 5114 5108 5103 5098 5094 5089 5086 5082 5078 5076 5075 5074 5074 5075 5079 5083 5084 5083 5073 5073 5074 5073 5072 5071 5070 5070 5072 5076 5081 5086 5089 5090 5092 5098 5104 5105 5105 5107 5111 5119 5129 5142
5107 5102 5097 5090 5085 5080 5078 5075 5072 5067 5064 5061 5062 5064 5069 5071 5067 5067 5066 5064 5063 5064 5064 5064 5064 5062 5063 5066 5071 5075 5080 5084 5085 5087 5090 5095 5103 5106 5111 5115 5122 5130 5141
5094 5086 5082 5077 5072 5070 5067 5064 5062 5056 5054 5052 5054 5058 5067 5066 5061 5059 5060 5059 5058 5057 5057 5057 5057 5057 5058 5061 5064 5068 5072 5076 5080 5083 5086 5089 5094 5101 5110 5120 5129 5134 5139
5075 5071 5066 5064 5062 5059 5057 5056 5053 5050 5048 5048 5051 5052 5057 5054 5054 5054 5055 5054 5053 5051 5050 5050 5050 5051 5051 5053 5057 5061 5066 5072 5074 5077 5080 5083 5087 5092 5098 5108 5118 5127 5132
5059 5054 5051 5048 5048 5048 5046 5045 5043 5042 5042 5044 5044 5045 5045 5046 5046 5047 5048 5048 5047 5047 5047 5046 5046 5047 5049 5049 5049 5052 5059 5067 5071 5071 5073 5076 5079 5084 5089 5095 5102 5109 5114
5041 5037 5035 5033 5031 5033 5034 5035 5036 5038 5038 5040 5038 5039 5041 5042 5041 5042 5043 5043 5043 5043 5043 5043 5044 5045 5046 5047 5048 5050 5053 5059 5065 5066 5068 5069 5070 5074 5080 5085 5091 5095 5099
5015 5011 5010 5012 5014 5019 5022 5026 5029 5031 5032 5033 5035 5035 5037 5038 5039 5040 5041 5040 5040 5040 5041 5041 5043 5045 5045 5046 5047 5050 5053 5059 5062 5063 5064 5065 5065 5067 5071 5074 5077 5081 5083
4996 4993 4996 4998 5000 5005 5010 5016 5022 5025 5028 5030 5031 5032 5032 5035 5036 5037 5038 5037 5037 5037 5037 5038 5041 5042 5043 5044 5046 5048 5051 5058 5060 5059 5060 5061 5061 5062 5063 5063 5064 5066 5067